Other Public Products
Issued by NWS Grand Forks, ND

Home | Current Version | Previous Version | Text Only | Print | Product List | Glossary Off
Versions: 1 2 3 4 5 6 7 8 9 10 11 12 13 14 15 16 17 18 19 20 21 22 23 24 25 26 27 28 29 30 31 32 33 34 35 36 37 38 39 40 41 42 43 44 45 46 47 48 49 50

000
FPUS83 KFGF 261731
OPUFGF
PRAIRIE TO PINES WEATHER ROUNDUP
NATIONAL WEATHER SERVICE EASTERN NORTH DAKOTA/GRAND FORKS ND
1100 AM CST FRI DEC 26 2014

 **SATELLITE DATA USED TO AUGMENT SKY COVER AT AUTOMATED STATIONS**
 *****  WEATHER ACROSS EASTERN NORTH DAKOTA  *****

CITY           SKY/WX    TMP DP  RH WIND       PRES   REMARKS
GRAND FORKS    FLURRIES  20  15  81 N13       30.20R WCI   7
GRAND FORKS AF CLOUDY    21  19  93 N12       30.20S WCI   9
GRAND CITY NWS   N/A     21 N/A N/A N6          N/A  WCI  14
BUXTON           N/A     24  20  85 NW12        N/A  WCI  13
DEVILS LAKE    CLOUDY     7   1  78 W10       30.19R WCI  -8
FARGO          CLOUDY    26  19  74 N12       30.17S WCI  16
WAHPETON ARPT  PTSUNNY   27  21  80 N17       30.14F WCI  14
$$

 *****  WEATHER ACROSS CENTRAL AND WESTERN NORTH DAKOTA  *****

CITY           SKY/WX    TMP DP  RH WIND       PRES   REMARKS
JAMESTOWN      FLURRIES  12   7  80 NW14      30.18R WCI  -3
BISMARCK       LGT SNOW  14  11  87 E3        30.22R FOG
MINOT          CLOUDY    11   4  73 W12       30.20R WCI  -3
MINOT AFB      LGT SNOW   9   5  85 NE3       30.20S FOG
GARRISON         N/A     10   5  80 NW8       30.19R WCI  -2
WILLISTON      CLOUDY    14  10  84 VRB3      30.19R
DICKINSON      SUNNY     21  12  68 W5        30.11R WCI  15
HETTINGER      CLOUDY    19  12  74 CALM      30.15R
$$

 *****  OTHER OBSERVATIONS NORTHEAST NORTH DAKOTA  *****

CITY           SKY/WX    TMP DP  RH WIND       PRES   REMARKS
WALHALLA       FLURRIES   7   5  92 W6        30.22S WCI  -3
LANGDON        FAIR       1  -4  78 NW14      30.16S WCI -17
CAVALIER       FLURRIES  10   7  85 W8        30.22R WCI  -1
GRAFTON        NOT AVBL
CANDO          FAIR       5   0  78 NW10      30.20F WCI -10
FORT TOTTEN      N/A      6   1  82 NW7       29.95S WCI  -6
ROLLA          FAIR       0  -4  85 CALM      30.17R
RUGBY          CLOUDY     5   1  85 NW16      30.21S WCI -14
 ***** THE ABOVE OBSERVATIONS ARE NON NWS ARE NOT QUALITY
        CONTROLLED AND MAY MIS-REPORT RAIN FOR SNOW...
$$

 *****  OTHER OBSERVATIONS SOUTHEAST NORTH DAKOTA *****

CITY           SKY/WX    TMP DP  RH WIND       PRES   REMARKS
COOPERSTOWN    NOT AVBL
VALLEY CITY    FLURRIES  18  18 100 NW12      30.17S WCI   5
OAKES          MIX PCPN  23  21  93 N13       30.16S WCI  11
GWINNER        CLOUDY    27  27 100 N14       30.16S WCI  15
SHEYENNE NWR     N/A     24  16  72 N8        29.95  WCI  15
BUFFALO        NOT AVBL
WYNDMERE         N/A     25  18  74 N10         N/A  WCI  15
 ***** THE ABOVE OBSERVATIONS ARE NON NWS ARE NOT QUALITY
       CONTROLLED AND MAY MIS-REPORT RAIN FOR SNOW...
$$

  *****  WEATHER ACROSS NORTHERN MINNESOTA  *****

CITY           SKY/WX    TMP DP  RH WIND       PRES   REMARKS
FLAG ISLAND    FLURRIES  19  16  86 N9        30.13S WCI   9
WARROAD        CLOUDY    19  16  86 NW6       30.15S WCI  11
ROSEAU         FLURRIES  21  16  79 NW9       30.15S WCI  11
HALLOCK        FLURRIES  16  12  86 NW16      30.20R WCI   0
THF RVR FALLS  CLOUDY    21  18  86 NW10      30.15F WCI  10
HALSTAD          N/A     24  19  82 N13         N/A  WCI  12
FOSSTON        FLURRIES  21  18  86 N8        30.13F WCI  12
BAUDETTE       CLOUDY    21  15  78 NW13      30.12R WCI   9
WASKISH        CLOUDY    21  19  93 CALM      30.12S FOG
CROOKSTON      LGT SNOW  23  19  86 NW7       30.18F WCI  15
$$
  *****  WEATHER ACROSS CENTRAL AND WEST MINNESOTA  *****

CITY           SKY/WX    TMP DP  RH WIND       PRES   REMARKS
BEMIDJI        PTSUNNY   22  16  78 N10       30.10F WCI  11
PARK RAPIDS    CLOUDY    24  17  74 N8        30.08F WCI  15
WADENA         CLOUDY    25  19  80 N12       30.08S WCI  14
DETROIT LAKES  CLOUDY    27  21  80 N5G16     30.12S WCI  21
MOORHEAD       LGT RAIN  25  23  93 N15       30.17S WCI  12
FERGUS FALLS   CLOUDY    25  18  74 N10       30.15F WCI  15
ELBOW LAKE     CLOUDY    24  21  90 N15       30.10F WCI  11
MORRIS MN      PTSUNNY   27  23  86 N13       30.09S WCI  16
STAPLES        CLOUDY    27  19  74 N9        30.07F WCI  17
WHEATON        CLOUDY    23  19  86 N16       30.16R WCI  10
$$
  *****  WEATHER ELSEWHERE ACROSS MINNESOTA  *****

CITY           SKY/WX    TMP DP  RH WIND       PRES   REMARKS
DULUTH         LGT SNOW  28  23  81 N8        30.02S WCI  20
INTRNTL FALLS  CLOUDY    24  19  81 NW8       30.09R WCI  15
ELY            CLOUDY    27  23  86 NW5       30.03S WCI  21
CLOQUET        FLURRIES  28  25  86 N9        30.03F WCI  20
BRAINERD       CLOUDY    27  21  78 N12       30.07S WCI  17
HIBBING        CLOUDY    27  23  85 NW12      30.05R WCI  17
ALEXANDRIA     CLOUDY    26  20  77 N12       30.07F WCI  16
SAINT CLOUD    LGT SNOW  32  24  72 N9        30.05F WCI  24
MINNEAPOLIS    CLOUDY    31  27  85 N13       30.03R WCI  21
$$

  *****  WEATHER ACROSS SOUTH DAKOTA  *****

CITY           SKY/WX    TMP DP  RH WIND       PRES   REMARKS
SIOUX FALLS    CLOUDY    28  23  81 N15       30.06F WCI  16
BROOKINGS      NOT AVBL
WATERTOWN      CLOUDY    22  18  85 N17       30.08R WCI   8
HURON          PTSUNNY   23  17  78 N16       30.14R WCI  10
SISSETON         N/A     24  20  84 N17       30.13R WCI  11
ABERDEEN       CLOUDY    25  19  78 N17       30.16R WCI  12
MITCHELL       CLOUDY    26  22  84 N16       30.14R WCI  14
PIERRE         CLOUDY    23  18  81 NE16      30.15R WCI  10
MOBRIDGE       CLOUDY    20  14  77 N13       30.15R WCI   7
RAPID CITY     CLOUDY    20  15  81 N10       30.11R WCI   9
$$

  *****  SOME WEATHER IN NEARBY STATES *****

CITY           SKY/WX    TMP DP  RH WIND       PRES   REMARKS
GLASGOW MT     MOSUNNY   21  15  78 E12       30.09R WCI   9
GREAT FALLS MT LGT SNOW  19  16  88 N14       30.11R VSB 3/4 WCI   6
CHEYENNE WY    LGT SNOW  14   7  73 N5        29.92S WCI   6
SCOTTSBLUFF NE LGT SNOW  21  16  81 CALM      30.06R
OMAHA NE       CLOUDY    33  31  92 N13       30.01R WCI  24
DES MOINES IA  CLOUDY    32  29  88 N10       29.98R FOG     WCI  24
DAVENPORT IA   CLOUDY    46  35  65 SW15      29.98S
CHICAGO IL     PTSUNNY   45  35  68 SW14      30.02F
EAU CLAIRE WI  CLOUDY    34  30  85 N7        29.96S
LA CROSSE WI   SUNNY     36  31  82 CALM      29.95S
$$

  *****  SOME NATIONAL WEATHER *****

CITY           SKY/WX    TMP DP  RH WIND       PRES   REMARKS
LA GUARDIA NY  MOSUNNY   46  29  51 W13       30.23F
RALEIGH NC     MOSUNNY   54  36  50 SW7       30.34F
ATLANTA GA     MOSUNNY   52  36  54 NW3       30.35S
NEW ORLEANS LA PTSUNNY   64  53  67 E6        30.21S
OKLAHOMA CITY  PTSUNNY   57  46  66 S17G26    29.91S
ALBUQUERQUE NM MOSUNNY   28  21  75 SW14      29.86R WCI  17
SALT LAKE CITY CLOUDY    27  21  78 N9        30.00R WCI  18
LOS ANGELES CA SUNNY     51  24  34 CALM      30.08R
BOISE ID       SUNNY     30  24  78 NW10      30.17R WCI  21
SEATTLE WA     FOG       36  35  96 SE3       30.37R VSB 1/4
$$

*** WEATHER ACROSS MANITOBA...SASKATCHEWAN AND ONTARIO ***
                ***ONTARIO***

CITY           SKY/WX    TMP DP  RH WIND       PRES   REMARKS
GERALDTON      LGT SNOW  28  27  93 N7        29.95F WCI  21
THUNDER BAY    CLOUDY    30  27  86 SW3       30.03
SIOUX LOOKOUT  FLURRIES  21  18  86 NW10      30.04  WCI  10
TORONTO        PTSUNNY   41  34  75 SW15      30.14F
BIG TROUT LK   FLURRIES  10   9  92 NW8       30.01S WCI  -1
PICKLE LAKE    FLURRIES  19  16  86 W5        29.99S WCI  13
DRYDEN         FLURRIES  21  19  93 NW8       30.06S WCI  12
KENORA         FLURRIES  14  10  85 N8        30.12R WCI   3
$$
                *** MANITOBA***

CITY           SKY/WX    TMP DP  RH WIND       PRES   REMARKS
BRANDON        PTSUNNY   -6 -11  77 W14       30.23R WCI -26
DAUPHIN        FLURRIES  -2  -8  78 W8        30.25S WCI -17
ISLAND LAKE    MOSUNNY   -8 -11  84 NW8       30.14S WCI -23
PILOT MOUND      N/A     -4  -9  77 NW9         N/A  WCI -20
THE PAS        MOCLDY   -11 -17  77 W8        30.20R WCI -28
THOMPSON       PTCLDY   -20 -27  69 W7        30.11S WCI -37
WINNIPEG       FLURRIES  10   5  79 N5        30.23R WCI   2
CHURCHILL      FLURRIES  -6 -11  77 W10       30.02  WCI -23
GILLAM         MOCLDY   -13 -20  70 W12       30.08  WCI -33
$$
                ***SASKATCHEWAN***

CITY           SKY/WX    TMP DP  RH WIND       PRES   REMARKS
ESTEVAN        CLOUDY    -2  -6  84 NW7       30.20S WCI -16
KINDERSLEY     CLOUDY     7   3  85 S8        30.10  WCI  -6
LLOYDMINSTER   FLURRIES  12   9  85 SW8       30.05R WCI   1
PRINCE ALBERT  FLURRIES  -9 -13  84 CALM      30.17
REGINA         PTSUNNY    1   0  92 S8        30.18S WCI -12
YORKTON        CLOUDY    -8 -13  77 W5        30.20S WCI -19


USA.gov is the U.S. government's official web portal to all federal, state and local government web resources and services.